Flag for Canada Weather past 2 weeks in Richmond, British Columbia, Canada

Now
66 °F

Partly sunny.


Feels Like: 66 °F
Forecast: 56 / 70 °F
Wind: 6 mph from East

Location: Vancouver International Air-Port

Current Time: Sep 19, 2014 at 7:29:24 PM

Latest Report: Sep 19, 2014 at 7:00 PM


Visibility: 20 mi

Pressure: 30.11 "Hg

Humidity: 83%

Dew point: 61 °F

Location of RichmondLocation

Historic Weather in Richmond — Graph

°F

Richmond temperature yesterday

Maximum temperature yesterday: 63 °F (at 11:00 AM)
Minimum temperature yesterday: 59 °F (at 2:00 AM)
Average temperature yesterday: 61 °F

Past Weeks' High & Low Weather Summary

 TemperatureHumidityPressure
High75 °F (Sep 6, 3:00 PM)100% (Sep 18, 5:00 AM)30.35 "Hg (Sep 18, 5:00 AM)
Low46 °F (Sep 11, 5:00 AM)34% (Sep 11, 10:00 AM)29.71 "Hg (Sep 17, 6:00 PM)
Average62 °F78%29.97 "Hg
* Reported Sep 4 6:00 PM — Sep 19 6:00 PM, Richmond, Weather by CustomWeather, © 2014

Note: Actual official high and low records may vary slightly from our data, if they occured in-between our weather recording intervals... More about our weather records

Advertising

Richmond weather history for previous 24 hours

 ConditionsComfort  
Time TempWeatherWind HumidityBarometerVisibility
6:00 PM
Sep 19
66 °FPartly sunny.8 mph83%30.11 "Hg20 mi
5:00 PM66 °FPartly sunny.7 mph83%30.10 "Hg20 mi
4:00 PM66 °FBroken clouds.6 mph83%30.10 "Hg15 mi
3:00 PM66 °FMostly cloudy.6 mph83%30.10 "Hg15 mi
2:03 PM64 °FMore clouds than sun.7 mph88%30.11 "Hg15 mi
1:00 PM61 °FCloudy.7 mph100%30.12 "Hg12 mi
12:47 PM61 °FMostly cloudy.7 mph100%30.11 "Hg12 mi
12:00 PM61 °FLight rain. Cloudy.8 mph94%30.11 "Hg6 mi
11:04 AM61 °FLight rain. Cloudy.8 mph94%30.09 "Hg6 mi
10:00 AM59 °FLight rain. Cloudy.8 mph100%30.07 "Hg4 mi
9:00 AM59 °FLight rain. Mostly cloudy.10 mph94%30.05 "Hg8 mi
8:00 AM59 °FMostly cloudy.13 mph94%30.02 "Hg15 mi
7:00 AM59 °FMostly cloudy.10 mph94%30.00 "Hg12 mi
6:00 AM59 °FLight rain. Mostly cloudy.10 mph94%29.98 "Hg15 mi
5:00 AM59 °FMostly cloudy.7 mph94%29.98 "Hg15 mi
4:00 AM59 °FMostly cloudy.9 mph94%29.97 "Hg15 mi
3:00 AM59 °FLight rain. Overcast.9 mph94%29.96 "Hg12 mi
2:00 AM59 °FMostly cloudy.9 mph94%29.95 "Hg15 mi
1:00 AM59 °FMostly cloudy.10 mph94%29.94 "Hg15 mi
12:00 AM59 °FMostly cloudy.8 mph94%29.93 "Hg15 mi
11:00 PM
Sep 18
61 °FMostly cloudy.7 mph94%29.93 "Hg15 mi
10:00 PM61 °FOvercast.6 mph94%29.91 "Hg15 mi
9:51 PM61 °FMostly cloudy.6 mph88%29.91 "Hg15 mi
9:00 PM61 °FMostly cloudy.7 mph88%29.90 "Hg15 mi
8:00 PM61 °FMore clouds than sun.7 mph94%29.86 "Hg15 mi
7:00 PM63 °FCloudy.6 mph88%29.85 "Hg15 mi
Weather by CustomWeather, © 2014

See weather overviewHow to use our weather pages